Wind_Speed
30 28 28 29 31 31 29 30 27 31 30 26 30 34 39 29 37 33 24 36 41 32 29 30 26 23 18 10 17 14 9 10 18 19 22 17 17 18 20 7 5 6 4 6
31 27 28 26 25 26 28 32 28 27 30 27 32 34 36 37 40 38 28 26 31 27 24 17 25 30 27 17 17 20 14 6 7 12 6 6 8 6 9 8 7 3 4 4
22 23 22 22 24 20 20 23 28 30 35 36 35 32 35 32 36 34 37 26 22 21 25 25 29 32 27 23 19 19 19 24 21 16 14 12 17 17 12 11 5 7 17 23
22 23 23 23 24 23 23 24 26 30 23 20 25 26 31 34 40 38 40 35 28 28 30 33 32 33 35 34 29 22 22 22 24 29 30 29 25 25 21 22 24 20 29 27
22 25 22 23 23 24 26 27 27 30 31 30 33 36 41 38 25 26 30 24 27 27 29 30 31 23 23 22 20 25 28 22 19 25 25 24 24 25 26 25 25 28 27 27
22 22 22 20 22 23 25 24 24 25 30 31 31 34 35 37 28 36 26 19 26 34 31 19 27 25 29 30 25 24 26 25 21 15 21 12 11 23 22 30 24 18 19 20
17 16 15 17 20 21 22 22 22 24 33 30 29 29 29 33 31 34 40 33 25 27 28 26 28 30 25 27 34 33 30 22 18 14 15 3 19 15 10 9 10 10 11 16
14 16 16 18 20 21 22 22 23 24 31 30 30 27 24 23 23 31 36 39 28 22 26 33 30 23 24 37 33 31 27 25 18 9 12 16 31 18 10 8 14 16 20 19
18 20 21 21 22 23 25 24 23 26 31 35 27 23 20 21 20 19 23 25 29 30 28 27 16 12 18 6 10 19 22 23 24 13 5 5 14 8 14 13 20 18 17 19
17 18 20 21 20 19 22 18 19 22 28 30 22 23 20 22 23 28 27 23 23 26 33 33 24 11 17 13 13 12 23 27 31 24 13 14 24 18 11 9 9 7 11 13
14 15 15 16 16 19 21 18 18 21 26 28 22 21 24 24 20 23 28 24 24 26 33 35 21 19 25 21 21 21 24 19 19 21 16 15 14 16 13 9 16 17 20 19
12 13 13 13 15 16 17 15 15 18 24 26 24 23 20 22 19 21 15 13 10 3 12 12 15 12 17 23 16 22 22 26 22 18 20 10 15 13 13 15 21 24 24 21
10 9 10 12 13 14 15 15 12 15 22 21 16 14 12 12 12 12 9 11 14 4 4 2 3 8 12 16 22 15 19 20 26 22 27 23 20 17 20 20 22 27 24 26
8 8 9 11 12 12 14 16 19 9 8 14 9 9 10 12 10 11 12 14 15 14 10 8 10 12 13 17 19 20 22 21 24 27 27 21 19 20 23 26 24 27 24 28
8 8 7 8 9 9 10 11 12 10 10 17 11 11 9 11 13 14 15 17 18 17 16 15 18 22 21 22 25 30 29 30 31 36 30 23 26 23 25 27 27 24 22 25
8 9 10 10 9 7 7 9 10 10 11 18 23 13 9 15 15 12 13 14 18 21 23 23 23 25 22 25 35 42 40 35 34 35 32 26 27 29 29 28 24 22 21 21
8 8 8 9 11 11 13 12 9 9 11 16 15 15 9 11 13 12 13 14 15 15 17 25 25 24 25 36 45 44 45 42 40 41 40 41 32 34 22 22 25 24 19 18
9 11 10 11 12 13 13 10 13 15 14 14 10 11 9 7 8 8 9 10 14 20 22 26 27 25 25 31 33 28 26 29 31 36 39 40 39 33 30 30 25 19 17 16
11 10 12 13 13 12 8 13 16 16 15 12 12 13 9 6 7 7 9 12 19 17 22 24 20 25 28 31 33 30 24 23 13 11 17 24 31 32 27 24 18 8 9 11
10 9 8 6 3 5 7 9 11 15 18 26 29 25 24 15 14 17 13 10 8 10 13 14 18 28 19 11 18 17 11 14 11 12 15 21 21 21 25 14 9 8 6 6
7 8 7 6 6 7 6 5 6 6 7 12 11 8 12 16 23 22 10 7 6 6 7 8 7 14 15 15 10 7 10 14 17 15 13 13 14 14 12 11 10 9 6 6
5 6 9 11 9 7 6 6 7 9 6 9 6 8 5 8 10 9 7 8 5 6 8 6 5 12 11 9 5 4 3 6 9 11 13 14 16 17 18 16 12 7 9 9
9 9 7 5 7 10 8 10 12 7 10 10 9 9 6 7 5 5 5 6 7 7 5 5 8 14 10 5 7 7 6 8 9 12 12 13 12 15 17 17 16 13 12 11
15 8 9 7 8 9 12 17 20 21 20 18 12 11 6 6 5 4 5 5 6 4 4 7 11 15 7 9 11 10 10 11 13 13 13 13 13 12 11 14 13 15 14 11
20 9 8 13 12 16 18 19 21 23 26 25 15 11 11 7 6 5 5 4 5 6 9 11 11 14 19 17 17 15 12 10 10 12 13 14 13 12 11 12 12 11 11 12
21 14 12 12 10 9 13 16 18 19 16 10 16 11 5 10 6 6 6 4 6 9 11 12 18 17 20 22 21 16 13 11 10 8 7 11 14 15 13 12 11 12 14 14
20 23 17 17 20 18 18 24 19 12 10 7 12 7 7 5 6 8 10 16 15 17 17 21 21 23 23 20 17 13 12 11 11 9 8 9 12 12 13 15 14 14 13 15
Wind_Direction
251 254 257 260 261 260 262 255 256 256 255 250 240 244 242 257 256 255 253 254 253 255 263 267 272 269 253 239 251 287 281 274 271 279 287 282 274 266 276 277 323 318 260 180
252 255 258 257 251 247 252 258 255 256 257 252 254 256 255 258 258 262 257 257 253 259 261 257 263 266 274 256 250 267 251 258 307 295 288 230 238 262 252 250 284 301 305 241
248 248 258 260 259 258 251 257 251 254 247 252 253 258 261 258 251 263 244 237 229 234 244 251 268 264 263 262 264 249 251 246 238 239 256 282 280 279 275 291 255 266 265 281
253 251 251 257 258 254 250 244 247 254 248 254 257 263 268 270 266 279 270 272 252 268 264 264 263 265 267 267 265 261 248 244 244 256 259 264 264 264 269 257 257 253 275 293
252 254 252 248 249 248 246 248 252 253 259 258 261 261 272 268 268 288 269 263 271 257 239 241 257 258 264 260 262 256 250 243 245 251 260 266 281 276 261 252 261 263 270 278
248 248 249 243 240 243 251 256 257 260 265 266 265 263 266 272 270 274 275 278 265 276 274 248 258 248 256 260 255 252 246 248 247 254 267 284 261 285 278 262 265 264 263 271
236 228 229 228 235 243 248 249 254 256 264 267 268 273 275 274 277 270 270 264 281 272 277 284 274 269 264 264 252 251 252 253 250 257 273 221 275 259 280 248 246 237 258 281
214 215 225 230 240 249 254 256 259 263 267 272 271 276 281 278 278 272 270 260 260 285 272 273 259 250 260 250 243 237 228 242 239 229 240 268 272 279 256 236 250 270 284 291
217 222 229 238 244 251 257 258 260 262 268 272 278 279 283 280 277 292 273 266 257 259 264 240 234 195 215 206 232 235 231 235 231 217 223 225 271 239 261 250 274 264 255 264
237 237 238 239 244 243 249 255 256 257 265 272 276 279 282 277 281 289 305 290 260 256 236 222 225 208 206 197 192 198 207 221 228 235 238 252 257 257 252 212 259 296 307 278
237 237 235 232 230 239 248 255 253 258 266 278 279 279 272 270 272 288 301 291 271 232 206 210 217 222 208 205 224 215 207 198 211 218 220 244 243 228 241 255 289 294 304 318
235 233 232 233 233 237 243 248 247 255 261 273 283 277 279 262 261 281 303 316 301 242 186 185 188 176 198 212 214 218 215 216 212 213 229 242 217 268 298 305 300 296 293 299
227 228 227 225 234 231 232 237 233 258 271 278 280 265 241 255 240 251 285 307 328 284 354 16 175 167 213 215 233 229 220 225 228 234 243 244 251 255 293 295 271 274 289 289
210 213 219 222 227 227 232 236 234 274 307 288 280 259 247 254 239 247 264 283 291 292 299 249 231 242 245 249 250 253 248 237 231 228 234 241 257 282 297 300 293 284 281 280
211 213 214 216 225 234 239 246 260 290 294 289 287 265 269 264 274 267 265 267 272 276 273 262 258 254 250 250 253 251 250 243 229 232 238 260 273 293 293 292 286 276 266 272
222 215 218 227 231 236 246 265 275 283 287 290 299 291 269 268 268 271 273 257 254 255 259 261 259 254 262 266 264 266 262 252 243 245 250 274 284 295 295 286 271 259 266 269
213 212 223 243 249 247 246 250 270 273 279 289 299 303 284 255 247 256 268 272 277 270 262 264 269 272 268 262 263 269 263 257 255 254 259 269 280 290 274 255 252 256 269 270
233 241 255 265 260 250 251 260 257 262 271 281 281 278 275 241 244 260 273 277 281 276 270 272 272 278 267 262 293 300 296 293 276 265 266 269 268 261 246 253 257 265 265 255
244 257 262 263 264 272 269 248 252 251 249 257 256 265 290 266 250 242 281 289 303 282 270 270 274 271 266 289 297 294 290 287 293 265 243 232 235 244 255 261 245 239 238 273
244 245 256 277 270 258 252 254 261 260 259 255 266 265 257 265 277 287 301 292 276 274 282 281 271 279 307 297 307 290 255 224 212 233 230 235 241 250 249 206 202 227 262 290
235 245 247 245 273 287 275 236 232 242 249 267 306 313 297 269 262 269 275 269 275 269 280 264 268 289 321 326 325 317 231 210 210 223 230 218 232 232 217 213 215 234 277 286
252 275 297 292 276 239 234 235 227 239 251 256 292 264 316 293 269 249 244 246 256 258 273 259 264 313 324 338 317 315 284 255 250 250 263 258 249 226 216 214 214 248 263 287
273 272 251 230 239 233 229 227 226 227 268 308 293 278 286 299 257 228 235 233 235 266 251 258 281 321 344 343 0 331 292 267 253 247 251 253 243 229 231 238 241 244 265 282
252 236 237 236 232 236 251 268 273 274 276 266 256 260 267 277 262 236 252 253 251 250 262 278 331 344 329 349 342 323 318 295 277 270 259 247 241 232 249 251 240 227 244 276
236 227 230 241 253 258 268 277 281 287 294 274 228 228 247 250 236 238 243 241 245 234 245 293 312 319 328 326 324 319 318 315 292 266 255 239 231 223 219 214 218 232 258 269
228 232 242 254 271 324 328 318 285 286 297 296 184 202 209 222 227 220 229 242 243 268 302 299 306 311 320 318 317 309 291 310 315 281 259 226 217 216 219 226 232 243 268 256
229 238 250 273 274 278 293 312 316 265 278 259 193 213 204 208 225 225 230 250 299 302 309 327 319 311 306 307 313 303 274 287 299 276 257 224 200 201 214 221 229 260 250 201
Height
2998 3001 3003 3005 3007 3010 3011 3014 3013 3013 3016 3020 3016 3015 3016 3018 3019 3018 3017 3019 3021 3021 3022 3021 3020 3021 3023 3023 3024 3024 3023 3021 3019 3017 3017 3016 3015 3016 3015 3017 3012 3011 3008 3009
2991 2994 2995 2997 3001 3002 3004 3004 3005 3007 3009 3007 3008 3011 3011 3011 3011 3012 3012 3011 3013 3015 3015 3017 3015 3014 3016 3017 3019 3015 3020 3017 3016 3011 3011 3010 3011 3011 3011 3011 3012 3013 3014 3005
2984 2985 2990 2990 2994 2996 2997 2999 2998 3000 3001 3000 3003 3003 3004 3003 3003 3001 3006 3002 3005 3008 3007 3009 3008 3009 3009 3010 3012 3014 3014 3012 3011 3012 3008 3010 3011 3008 3008 3010 3010 3007 3006 3003
2977 2980 2983 2984 2987 2990 2991 2991 2991 2993 2993 2995 2996 2997 2995 2995 2996 2995 2995 2993 2995 2998 2999 2999 3000 3001 3002 3004 3005 3007 3006 3003 3004 3004 3003 3004 3004 3004 3005 3004 3004 3005 3001 2998
2971 2973 2975 2978 2980 2982 2984 2985 2987 2987 2988 2989 2990 2989 2988 2988 2989 2989 2986 2984 2987 2990 2990 2991 2992 2995 2997 2997 2997 2998 2999 2998 2998 2998 2999 2998 2996 2997 2997 2997 2998 2998 2997 2991
2965 2967 2969 2972 2974 2976 2976 2979 2981 2982 2980 2980 2982 2981 2981 2980 2983 2980 2981 2980 2980 2979 2981 2982 2985 2985 2988 2990 2990 2991 2993 2993 2993 2990 2992 2992 2993 2989 2988 2990 2993 2994 2992 2990
2959 2962 2964 2967 2969 2971 2973 2975 2976 2976 2971 2973 2974 2974 2975 2973 2974 2973 2972 2976 2975 2975 2976 2975 2976 2977 2978 2980 2980 2983 2985 2987 2989 2987 2988 2988 2984 2984 2984 2987 2988 2988 2987 2985
2956 2959 2961 2963 2965 2967 2968 2969 2970 2970 2965 2967 2967 2968 2968 2967 2966 2963 2962 2964 2969 2971 2969 2971 2969 2968 2971 2966 2970 2973 2977 2981 2983 2983 2982 2980 2976 2978 2980 2981 2982 2983 2982 2981
2952 2955 2957 2959 2961 2962 2962 2964 2965 2964 2962 2958 2962 2962 2962 2960 2958 2956 2953 2955 2960 2962 2960 2961 2960 2957 2961 2963 2965 2967 2972 2975 2979 2978 2978 2977 2970 2973 2975 2976 2975 2977 2977 2976
2948 2950 2952 2954 2956 2957 2956 2959 2960 2959 2956 2953 2958 2956 2955 2955 2954 2951 2948 2946 2947 2950 2947 2950 2952 2950 2954 2957 2959 2962 2964 2968 2968 2971 2973 2969 2966 2969 2971 2973 2976 2971 2972 2971
2944 2946 2948 2950 2952 2952 2953 2955 2955 2954 2951 2948 2951 2951 2949 2949 2949 2948 2945 2942 2935 2935 2936 2941 2942 2944 2947 2949 2952 2953 2957 2960 2960 2965 2968 2965 2961 2965 2968 2967 2966 2966 2966 2964
2941 2942 2944 2946 2947 2948 2949 2950 2951 2950 2948 2944 2945 2944 2943 2943 2945 2944 2940 2939 2933 2929 2928 2932 2935 2937 2940 2942 2945 2949 2952 2951 2953 2955 2954 2956 2956 2960 2961 2961 2960 2958 2958 2957
2938 2939 2941 2942 2943 2944 2946 2946 2947 2947 2944 2941 2938 2937 2939 2938 2940 2940 2939 2936 2934 2931 2930 2931 2929 2932 2940 2938 2939 2942 2944 2944 2947 2950 2949 2951 2951 2953 2954 2954 2952 2951 2951 2950
2936 2937 2938 2939 2940 2941 2942 2943 2943 2942 2940 2937 2937 2935 2935 2935 2935 2936 2935 2935 2934 2934 2933 2932 2931 2932 2933 2932 2934 2936 2939 2938 2939 2941 2942 2944 2944 2946 2947 2946 2945 2944 2943 2943
2935 2936 2937 2938 2939 2940 2940 2940 2940 2940 2942 2936 2934 2933 2933 2932 2932 2932 2933 2933 2932 2931 2931 2930 2930 2930 2931 2930 2931 2928 2930 2930 2929 2929 2933 2935 2936 2938 2938 2937 2937 2938 2936 2935
2933 2934 2935 2936 2938 2938 2939 2939 2939 2938 2937 2934 2930 2930 2931 2929 2929 2929 2929 2928 2928 2927 2926 2926 2925 2926 2927 2923 2918 2919 2921 2921 2921 2922 2924 2926 2928 2929 2931 2929 2930 2931 2929 2927
2932 2933 2934 2935 2935 2936 2937 2938 2938 2936 2935 2933 2929 2926 2925 2924 2925 2926 2926 2925 2924 2924 2922 2918 2919 2919 2920 2915 2909 2908 2910 2912 2912 2915 2917 2916 2920 2921 2923 2921 2922 2922 2921 2920
2930 2930 2932 2932 2932 2932 2933 2934 2934 2933 2933 2932 2928 2925 2924 2923 2923 2923 2923 2922 2921 2918 2916 2913 2912 2912 2910 2903 2895 2897 2898 2897 2898 2900 2904 2905 2911 2912 2912 2912 2914 2914 2914 2915
2927 2929 2929 2929 2929 2928 2930 2929 2929 2930 2932 2928 2925 2923 2922 2921 2921 2921 2920 2918 2914 2911 2907 2906 2908 2902 2896 2893 2892 2890 2890 2889 2889 2890 2891 2894 2897 2901 2905 2906 2908 2908 2909 2909
2926 2926 2927 2926 2927 2926 2927 2926 2926 2925 2923 2920 2916 2918 2918 2920 2918 2917 2917 2913 2911 2907 2905 2903 2898 2892 2890 2888 2885 2882 2882 2883 2884 2886 2887 2890 2893 2896 2898 2899 2902 2904 2904 2903
2924 2924 2925 2926 2925 2925 2924 2923 2923 2921 2918 2915 2913 2913 2912 2914 2913 2914 2915 2911 2909 2905 2903 2900 2895 2888 2886 2884 2882 2880 2880 2880 2880 2881 2883 2886 2889 2890 2892 2896 2898 2900 2900 2899
2924 2925 2924 2924 2923 2923 2922 2919 2918 2916 2914 2912 2911 2912 2911 2910 2909 2910 2910 2908 2907 2902 2900 2897 2891 2887 2886 2884 2882 2880 2880 2880 2880 2881 2882 2883 2885 2888 2890 2892 2894 2895 2896 2897
2922 2923 2924 2922 2921 2919 2916 2913 2912 2911 2911 2911 2911 2910 2910 2909 2908 2907 2906 2904 2902 2901 2897 2893 2889 2887 2883 2881 2881 2881 2880 2879 2878 2879 2879 2880 2882 2884 2885 2887 2889 2891 2892 2893
2921 2921 2920 2918 2914 2911 2909 2909 2908 2907 2905 2906 2906 2907 2908 2907 2906 2905 2904 2902 2900 2898 2894 2891 2889 2885 2884 2882 2880 2878 2876 2875 2875 2875 2875 2876 2877 2879 2880 2882 2884 2886 2888 2888
2917 2916 2913 2909 2909 2907 2906 2905 2903 2902 2900 2899 2900 2903 2905 2904 2904 2902 2901 2899 2896 2892 2889 2887 2886 2884 2882 2880 2878 2875 2874 2872 2870 2870 2871 2872 2874 2875 2877 2879 2881 2883 2884 2884
2911 2909 2907 2906 2906 2905 2903 2901 2899 2898 2896 2893 2895 2899 2900 2900 2900 2898 2897 2895 2890 2888 2887 2886 2884 2882 2879 2876 2874 2871 2870 2868 2867 2866 2867 2867 2869 2872 2874 2876 2877 2879 2880 2880
2904 2903 2904 2903 2902 2901 2898 2896 2895 2895 2895 2894 2895 2895 2896 2896 2894 2893 2891 2889 2888 2887 2885 2883 2880 2877 2874 2871 2869 2867 2866 2865 2865 2865 2864 2865 2866 2868 2870 2872 2874 2875 2876 2877